Time,TemperatureF,DewpointF,PressureIn,WindDirection,WindDirectionDegrees,WindSpeedMPH,WindSpeedGustMPH,Humidity,HourlyPrecipIn,Conditions,Clouds,dailyrainin,SoftwareType,DateUTC
2013-01-03 00:01:00,47.2,27.3,30.08,SW,225,0.4,1.1,46,0.00,,,0.00,WUHU216HW,2013-01-03 08:01:00,
2013-01-03 00:06:00,47.2,27.3,30.07,SW,225,1.1,1.1,46,0.00,,,0.00,WUHU216HW,2013-01-03 08:06:00,
2013-01-03 00:11:00,47.2,27.3,30.08,SW,225,1.1,1.3,46,0.00,,,0.00,WUHU216HW,2013-01-03 08:11:00,
2013-01-03 00:16:00,47.2,27.3,30.07,SW,225,1.1,1.3,46,0.00,,,0.00,WUHU216HW,2013-01-03 08:16:00,
2013-01-03 00:21:00,47.2,27.3,30.07,SW,225,0.9,1.3,46,0.00,,,0.00,WUHU216HW,2013-01-03 08:21:00,
2013-01-03 00:27:00,47.2,27.8,30.08,SW,225,1.1,1.3,47,0.00,,,0.00,WUHU216HW,2013-01-03 08:27:00,
2013-01-03 00:32:00,47.2,27.3,30.08,SW,225,1.1,1.1,46,0.00,,,0.00,WUHU216HW,2013-01-03 08:32:00,
2013-01-03 00:37:00,47.2,27.3,30.07,SW,225,0.7,1.1,46,0.00,,,0.00,WUHU216HW,2013-01-03 08:37:00,
2013-01-03 00:42:00,47.2,27.3,30.08,SW,225,0.9,1.1,46,0.00,,,0.00,WUHU216HW,2013-01-03 08:42:00,
2013-01-03 00:47:00,47.2,27.3,30.08,SW,225,0.7,1.1,46,0.00,,,0.00,WUHU216HW,2013-01-03 08:47:00,
2013-01-03 00:52:00,47.0,26.6,30.08,SW,225,1.1,1.1,45,0.00,,,0.00,WUHU216HW,2013-01-03 08:52:00,
2013-01-03 00:57:00,46.8,26.5,30.07,WSW,248,0.7,1.8,45,0.00,,,0.00,WUHU216HW,2013-01-03 08:57:00,
2013-01-03 01:02:00,46.6,26.3,30.09,WSW,248,1.1,1.8,45,0.00,,,0.00,WUHU216HW,2013-01-03 09:02:00,
2013-01-03 01:07:00,46.4,26.6,30.07,SW,225,1.6,1.8,46,0.00,,,0.00,WUHU216HW,2013-01-03 09:07:00,
2013-01-03 01:12:00,46.3,25.9,30.09,WSW,248,1.3,1.8,45,0.00,,,0.00,WUHU216HW,2013-01-03 09:12:00,
2013-01-03 01:17:00,46.3,26.5,30.08,WSW,248,1.8,1.8,46,0.00,,,0.00,WUHU216HW,2013-01-03 09:17:00,
2013-01-03 01:22:00,46.1,26.8,30.08,SW,225,0.9,1.8,47,0.00,,,0.00,WUHU216HW,2013-01-03 09:22:00,
2013-01-03 01:27:00,46.1,27.4,30.08,SW,225,1.1,1.6,48,0.00,,,0.00,WUHU216HW,2013-01-03 09:27:00,
2013-01-03 01:32:00,46.3,28.1,30.07,SW,225,1.3,1.3,49,0.00,,,0.00,WUHU216HW,2013-01-03 09:32:00,
2013-01-03 01:38:00,46.6,27.9,30.08,SW,225,0.4,1.3,48,0.00,,,0.00,WUHU216HW,2013-01-03 09:38:00,
2013-01-03 01:43:00,47.0,27.6,30.09,SW,225,0.4,0.9,47,0.00,,,0.00,WUHU216HW,2013-01-03 09:43:00,
2013-01-03 01:48:00,47.2,27.8,30.09,SW,225,0.7,0.9,47,0.00,,,0.00,WUHU216HW,2013-01-03 09:48:00,
2013-01-03 01:53:00,47.2,27.3,30.08,SW,225,1.1,1.1,46,0.00,,,0.00,WUHU216HW,2013-01-03 09:53:00,
2013-01-03 01:58:00,47.3,27.5,30.09,SW,225,0.9,1.1,46,0.00,,,0.00,WUHU216HW,2013-01-03 09:58:00,
2013-01-03 02:03:00,47.3,27.5,30.08,SW,225,1.1,1.1,46,0.00,,,0.00,WUHU216HW,2013-01-03 10:03:00,
2013-01-03 02:08:00,47.3,26.9,30.09,WSW,248,1.3,2.5,45,0.00,,,0.00,WUHU216HW,2013-01-03 10:08:00,
2013-01-03 02:13:00,47.3,27.5,30.09,WSW,248,1.8,2.5,46,0.00,,,0.00,WUHU216HW,2013-01-03 10:13:00,
2013-01-03 02:18:00,47.2,26.7,30.09,WSW,248,1.1,2.5,45,0.00,,,0.00,WUHU216HW,2013-01-03 10:18:00,
2013-01-03 02:23:00,47.2,26.7,30.09,WSW,248,0.9,1.3,45,0.00,,,0.00,WUHU216HW,2013-01-03 10:23:00,
2013-01-03 02:28:00,47.2,26.7,30.09,WSW,248,0.7,1.3,45,0.00,,,0.00,WUHU216HW,2013-01-03 10:28:00,
2013-01-03 02:33:00,47.5,26.6,30.08,WSW,248,1.6,1.6,44,0.00,,,0.00,WUHU216HW,2013-01-03 10:33:00,
2013-01-03 02:38:00,47.5,26.6,30.09,WSW,248,0.7,1.6,44,0.00,,,0.00,WUHU216HW,2013-01-03 10:38:00,
2013-01-03 02:43:00,47.3,26.4,30.09,WSW,248,0.9,0.9,44,0.00,,,0.00,WUHU216HW,2013-01-03 10:43:00,
2013-01-03 02:49:00,47.3,26.9,30.09,SW,225,1.1,1.1,45,0.00,,,0.00,WUHU216HW,2013-01-03 10:49:00,
2013-01-03 02:54:00,47.3,26.4,30.09,SW,225,0.4,1.1,44,0.00,,,0.00,WUHU216HW,2013-01-03 10:54:00,
2013-01-03 02:59:00,47.5,26.6,30.09,SW,225,0.4,0.9,44,0.00,,,0.00,WUHU216HW,2013-01-03 10:59:00,
2013-01-03 03:04:00,47.7,26.7,30.09,SW,225,0.9,0.9,44,0.00,,,0.00,WUHU216HW,2013-01-03 11:04:00,
2013-01-03 03:09:00,47.7,26.7,30.08,SW,225,1.1,1.1,44,0.00,,,0.00,WUHU216HW,2013-01-03 11:09:00,
2013-01-03 03:14:00,47.9,26.8,30.09,SW,225,1.1,1.1,44,0.00,,,0.00,WUHU216HW,2013-01-03 11:14:00,
2013-01-03 03:19:00,47.7,26.7,30.08,SW,225,0.9,1.1,44,0.00,,,0.00,WUHU216HW,2013-01-03 11:19:00,
2013-01-03 03:24:00,47.7,26.7,30.07,SW,225,1.1,1.1,44,0.00,,,0.00,WUHU216HW,2013-01-03 11:24:00,
2013-01-03 03:29:00,47.7,26.7,30.09,SW,225,0.4,1.1,44,0.00,,,0.00,WUHU216HW,2013-01-03 11:29:00,
2013-01-03 03:34:00,47.7,26.7,30.08,SW,225,1.1,1.1,44,0.00,,,0.00,WUHU216HW,2013-01-03 11:34:00,
2013-01-03 03:39:00,47.5,26.6,30.09,SW,225,1.1,1.1,44,0.00,,,0.00,WUHU216HW,2013-01-03 11:39:00,
2013-01-03 03:44:00,47.5,26.6,30.09,SW,225,1.1,1.3,44,0.00,,,0.00,WUHU216HW,2013-01-03 11:44:00,
2013-01-03 03:49:00,47.5,26.6,30.09,SW,225,1.3,1.6,44,0.00,,,0.00,WUHU216HW,2013-01-03 11:49:00,
2013-01-03 03:54:00,47.3,26.4,30.07,SW,225,1.3,1.6,44,0.00,,,0.00,WUHU216HW,2013-01-03 11:54:00,
2013-01-03 04:00:00,47.3,26.9,30.09,SW,225,1.1,1.3,45,0.00,,,0.00,WUHU216HW,2013-01-03 12:00:00,
2013-01-03 04:05:00,47.3,26.9,30.08,SW,225,1.3,1.8,45,0.00,,,0.00,WUHU216HW,2013-01-03 12:05:00,
2013-01-03 04:10:00,47.2,26.7,30.07,SW,225,1.1,1.8,45,0.00,,,0.00,WUHU216HW,2013-01-03 12:10:00,
2013-01-03 04:15:00,47.2,26.7,30.08,SW,225,0.9,1.3,45,0.00,,,0.00,WUHU216HW,2013-01-03 12:15:00,
2013-01-03 04:20:00,47.2,26.7,30.07,SW,225,0.7,0.9,45,0.00,,,0.00,WUHU216HW,2013-01-03 12:20:00,
2013-01-03 04:25:00,47.2,26.7,30.07,SW,225,0.9,1.1,45,0.00,,,0.00,WUHU216HW,2013-01-03 12:25:00,
2013-01-03 04:30:00,47.3,26.9,30.08,SW,225,0.7,1.1,45,0.00,,,0.00,WUHU216HW,2013-01-03 12:30:00,
2013-01-03 04:35:00,47.5,27.1,30.08,SW,225,0.7,0.9,45,0.00,,,0.00,WUHU216HW,2013-01-03 12:35:00,
2013-01-03 04:40:00,47.5,26.6,30.08,SW,225,1.1,1.1,44,0.00,,,0.00,WUHU216HW,2013-01-03 12:40:00,
2013-01-03 04:45:00,47.7,26.7,30.07,SW,225,1.1,1.3,44,0.00,,,0.00,WUHU216HW,2013-01-03 12:45:00,
2013-01-03 04:50:00,47.7,26.7,30.07,SW,225,1.3,1.3,44,0.00,,,0.00,WUHU216HW,2013-01-03 12:50:00,
2013-01-03 04:55:00,47.5,26.6,30.07,SW,225,0.9,1.3,44,0.00,,,0.00,WUHU216HW,2013-01-03 12:55:00,
2013-01-03 05:01:00,47.5,26.6,30.07,SW,225,0.9,1.3,44,0.00,,,0.00,WUHU216HW,2013-01-03 13:01:00,
2013-01-03 05:06:00,47.3,26.4,30.07,SW,225,1.1,1.6,44,0.00,,,0.00,WUHU216HW,2013-01-03 13:06:00,
2013-01-03 05:11:00,47.2,26.7,30.07,SW,225,1.8,1.8,45,0.00,,,0.00,WUHU216HW,2013-01-03 13:11:00,
2013-01-03 05:16:00,46.8,26.5,30.07,SW,225,1.3,1.8,45,0.00,,,0.00,WUHU216HW,2013-01-03 13:16:00,
2013-01-03 05:21:00,46.6,26.3,30.08,SW,225,0.7,1.6,45,0.00,,,0.00,WUHU216HW,2013-01-03 13:21:00,
2013-01-03 05:26:00,46.6,26.8,30.07,SSW,203,0.7,1.1,46,0.00,,,0.00,WUHU216HW,2013-01-03 13:26:00,
2013-01-03 05:31:00,46.8,27.0,30.07,SW,225,0.4,1.1,46,0.00,,,0.00,WUHU216HW,2013-01-03 13:31:00,
2013-01-03 05:36:00,47.2,26.7,30.07,SW,225,0.4,1.1,45,0.00,,,0.00,WUHU216HW,2013-01-03 13:36:00,
2013-01-03 05:41:00,47.3,26.9,30.07,SSW,203,0.9,1.1,45,0.00,,,0.00,WUHU216HW,2013-01-03 13:41:00,
2013-01-03 05:46:00,47.5,27.1,30.09,SW,225,1.3,1.3,45,0.00,,,0.00,WUHU216HW,2013-01-03 13:46:00,
2013-01-03 05:51:00,47.5,26.6,30.07,SW,225,1.6,1.6,44,0.00,,,0.00,WUHU216HW,2013-01-03 13:51:00,
2013-01-03 05:56:00,47.5,26.6,30.07,SW,225,1.1,1.6,44,0.00,,,0.00,WUHU216HW,2013-01-03 13:56:00,
2013-01-03 06:01:00,47.2,26.2,30.08,SW,225,1.3,1.3,44,0.00,,,0.00,WUHU216HW,2013-01-03 14:01:00,
2013-01-03 06:06:00,47.0,26.0,30.09,WSW,248,0.9,1.3,44,0.00,,,0.00,WUHU216HW,2013-01-03 14:06:00,
2013-01-03 06:11:00,46.8,25.9,30.09,WSW,248,1.1,1.3,44,0.00,,,0.00,WUHU216HW,2013-01-03 14:11:00,
2013-01-03 06:17:00,46.6,25.8,30.09,WSW,248,2.0,2.0,44,0.00,,,0.00,WUHU216HW,2013-01-03 14:17:00,
2013-01-03 06:22:00,46.6,25.8,30.08,WSW,248,1.8,2.0,44,0.00,,,0.00,WUHU216HW,2013-01-03 14:22:00,
2013-01-03 06:27:00,46.6,25.8,30.08,SW,225,1.6,2.2,44,0.00,,,0.00,WUHU216HW,2013-01-03 14:27:00,
2013-01-03 06:32:00,46.6,25.8,30.09,WSW,248,1.8,2.2,44,0.00,,,0.00,WUHU216HW,2013-01-03 14:32:00,
2013-01-03 06:37:00,46.4,25.0,30.09,WSW,248,2.0,2.2,43,0.00,,,0.00,WUHU216HW,2013-01-03 14:37:00,
2013-01-03 06:42:00,46.6,25.2,30.08,SW,225,1.8,2.5,43,0.00,,,0.00,WUHU216HW,2013-01-03 14:42:00,
2013-01-03 06:47:00,46.6,25.2,30.09,WSW,248,2.2,2.5,43,0.00,,,0.00,WUHU216HW,2013-01-03 14:47:00,
2013-01-03 06:52:00,46.6,25.2,30.09,WSW,248,2.0,2.2,43,0.00,,,0.00,WUHU216HW,2013-01-03 14:52:00,
2013-01-03 06:57:00,46.6,24.7,30.09,WSW,248,1.3,2.0,42,0.00,,,0.00,WUHU216HW,2013-01-03 14:57:00,
2013-01-03 07:02:00,46.6,25.2,30.10,WSW,248,1.1,1.8,43,0.00,,,0.00,WUHU216HW,2013-01-03 15:02:00,
2013-01-03 07:07:00,46.6,25.2,30.10,WSW,248,0.9,1.6,43,0.00,,,0.00,WUHU216HW,2013-01-03 15:07:00,
2013-01-03 07:12:00,46.4,25.6,30.10,SW,225,0.9,1.1,44,0.00,,,0.00,WUHU216HW,2013-01-03 15:12:00,
2013-01-03 07:17:00,46.4,25.6,30.10,SW,225,0.9,1.1,44,0.00,,,0.00,WUHU216HW,2013-01-03 15:17:00,
2013-01-03 07:22:00,46.4,25.6,30.11,SW,225,1.1,1.1,44,0.00,,,0.00,WUHU216HW,2013-01-03 15:22:00,
2013-01-03 07:27:00,46.3,25.9,30.11,SW,225,0.4,1.1,45,0.00,,,0.00,WUHU216HW,2013-01-03 15:27:00,
2013-01-03 07:32:00,46.3,25.9,30.11,SW,225,0.7,0.9,45,0.00,,,0.00,WUHU216HW,2013-01-03 15:32:00,
2013-01-03 07:38:00,46.1,25.7,30.12,SW,225,1.1,1.6,45,0.00,,,0.00,WUHU216HW,2013-01-03 15:38:00,
2013-01-03 07:43:00,46.1,25.7,30.11,WSW,248,1.1,1.8,45,0.00,,,0.00,WUHU216HW,2013-01-03 15:43:00,
2013-01-03 07:48:00,46.3,25.9,30.12,WSW,248,1.3,1.8,45,0.00,,,0.00,WUHU216HW,2013-01-03 15:48:00,
2013-01-03 07:53:00,46.4,25.6,30.11,SW,225,1.8,1.8,44,0.00,,,0.00,WUHU216HW,2013-01-03 15:53:00,
2013-01-03 07:58:00,46.4,25.6,30.11,SW,225,1.1,1.8,44,0.00,,,0.00,WUHU216HW,2013-01-03 15:58:00,
2013-01-03 08:03:00,46.6,25.8,30.12,SW,225,0.7,1.1,44,0.00,,,0.00,WUHU216HW,2013-01-03 16:03:00,
2013-01-03 08:08:00,47.0,26.6,30.11,SW,225,1.1,1.1,45,0.00,,,0.00,WUHU216HW,2013-01-03 16:08:00,
2013-01-03 08:13:00,47.3,26.9,30.11,SW,225,0.4,1.1,45,0.00,,,0.00,WUHU216HW,2013-01-03 16:13:00,
2013-01-03 08:18:00,47.9,27.4,30.12,SW,225,0.4,1.1,45,0.00,,,0.00,WUHU216HW,2013-01-03 16:18:00,
2013-01-03 08:23:00,48.2,27.7,30.12,SW,225,0.4,1.1,45,0.00,,,0.00,WUHU216HW,2013-01-03 16:23:00,
2013-01-03 08:29:00,48.4,27.9,30.12,SW,225,0.9,1.1,45,0.00,,,0.00,WUHU216HW,2013-01-03 16:29:00,
2013-01-03 08:34:00,48.4,28.5,30.13,SW,225,0.7,1.1,46,0.00,,,0.00,WUHU216HW,2013-01-03 16:34:00,
2013-01-03 08:39:00,48.6,28.6,30.13,SW,225,0.7,1.1,46,0.00,,,0.00,WUHU216HW,2013-01-03 16:39:00,
2013-01-03 08:44:00,48.6,29.2,30.12,SW,225,0.4,0.9,47,0.00,,,0.00,WUHU216HW,2013-01-03 16:44:00,
2013-01-03 08:49:00,49.0,29.5,30.12,SW,225,0.4,0.9,47,0.00,,,0.00,WUHU216HW,2013-01-03 16:49:00,
2013-01-03 08:54:00,49.1,29.2,30.12,SW,225,0.0,0.7,46,0.00,,,0.00,WUHU216HW,2013-01-03 16:54:00,
2013-01-03 08:59:00,49.7,29.1,30.12,SW,225,0.4,0.7,45,0.00,,,0.00,WUHU216HW,2013-01-03 16:59:00,
2013-01-03 09:04:00,49.9,29.3,30.13,SW,225,0.2,0.7,45,0.00,,,0.00,WUHU216HW,2013-01-03 17:04:00,
2013-01-03 09:09:00,50.0,28.9,30.12,WSW,248,0.4,0.9,44,0.00,,,0.00,WUHU216HW,2013-01-03 17:09:00,
2013-01-03 09:14:00,50.2,29.6,30.13,WSW,248,0.0,0.9,45,0.00,,,0.00,WUHU216HW,2013-01-03 17:14:00,
2013-01-03 09:19:00,50.4,29.2,30.13,WSW,248,0.2,0.2,44,0.00,,,0.00,WUHU216HW,2013-01-03 17:19:00,
2013-01-03 09:25:00,50.6,28.3,30.13,WSW,248,0.0,0.2,42,0.00,,,0.00,WUHU216HW,2013-01-03 17:25:00,
2013-01-03 09:30:00,50.9,28.5,30.14,WSW,248,0.0,0.0,42,0.00,,,0.00,WUHU216HW,2013-01-03 17:30:00,
2013-01-03 09:35:00,51.1,29.3,30.13,WSW,248,0.0,0.0,43,0.00,,,0.00,WUHU216HW,2013-01-03 17:35:00,
2013-01-03 09:40:00,51.3,29.4,30.14,WSW,248,0.4,0.7,43,0.00,,,0.00,WUHU216HW,2013-01-03 17:40:00,
2013-01-03 09:45:00,51.5,30.2,30.14,West,270,0.4,0.7,44,0.00,,,0.00,WUHU216HW,2013-01-03 17:45:00,
2013-01-03 09:50:00,51.7,31.4,30.13,West,270,0.4,0.4,46,0.00,,,0.00,WUHU216HW,2013-01-03 17:50:00,
2013-01-03 09:55:00,51.8,30.5,30.14,WSW,248,0.9,1.1,44,0.00,,,0.00,WUHU216HW,2013-01-03 17:55:00,
2013-01-03 10:00:00,52.0,30.7,30.15,WSW,248,0.2,1.1,44,0.00,,,0.00,WUHU216HW,2013-01-03 18:00:00,
2013-01-03 10:05:00,52.2,30.8,30.14,WSW,248,0.9,0.9,44,0.00,,,0.00,WUHU216HW,2013-01-03 18:05:00,
2013-01-03 10:10:00,52.2,30.2,30.14,WSW,248,0.4,0.9,43,0.00,,,0.00,WUHU216HW,2013-01-03 18:10:00,
2013-01-03 10:15:00,52.4,30.4,30.13,WSW,248,0.7,1.1,43,0.00,,,0.00,WUHU216HW,2013-01-03 18:15:00,
2013-01-03 10:20:00,52.4,30.4,30.15,WSW,248,0.4,1.3,43,0.00,,,0.00,WUHU216HW,2013-01-03 18:20:00,
2013-01-03 10:26:00,52.6,30.6,30.14,WSW,248,0.7,1.3,43,0.00,,,0.00,WUHU216HW,2013-01-03 18:26:00,
2013-01-03 10:31:00,52.6,29.4,30.15,WSW,248,0.2,1.3,41,0.00,,,0.00,WUHU216HW,2013-01-03 18:31:00,
2013-01-03 10:36:00,52.7,29.6,30.14,NNW,338,0.0,1.3,41,0.00,,,0.00,WUHU216HW,2013-01-03 18:36:00,
2013-01-03 10:41:00,52.9,29.8,30.14,ENE,68,0.0,0.4,41,0.00,,,0.00,WUHU216HW,2013-01-03 18:41:00,
2013-01-03 10:46:00,52.9,30.3,30.14,ENE,68,0.0,0.4,42,0.00,,,0.00,WUHU216HW,2013-01-03 18:46:00,
2013-01-03 10:51:00,53.1,30.5,30.14,ENE,68,0.9,0.9,42,0.00,,,0.00,WUHU216HW,2013-01-03 18:51:00,
2013-01-03 10:56:00,53.3,32.3,30.12,East,90,0.0,0.9,45,0.00,,,0.00,WUHU216HW,2013-01-03 18:56:00,
2013-01-03 11:01:00,53.5,33.0,30.14,East,90,0.0,0.4,46,0.00,,,0.00,WUHU216HW,2013-01-03 19:01:00,
2013-01-03 11:06:00,53.6,33.8,30.13,East,90,0.4,0.4,47,0.00,,,0.00,WUHU216HW,2013-01-03 19:06:00,
2013-01-03 11:11:00,53.6,33.8,30.13,ESE,113,0.4,0.9,47,0.00,,,0.00,WUHU216HW,2013-01-03 19:11:00,
2013-01-03 11:16:00,53.8,33.9,30.14,East,90,0.0,0.9,47,0.00,,,0.00,WUHU216HW,2013-01-03 19:16:00,
2013-01-03 11:55:00,55.8,34.7,30.12,ENE,68,0.9,1.1,45,0.00,,,0.00,WUHU216HW,2013-01-03 19:55:00,
2013-01-03 12:00:00,55.8,34.7,30.12,ENE,68,0.4,1.1,45,0.00,,,0.00,WUHU216HW,2013-01-03 20:00:00,
2013-01-03 12:05:00,56.0,34.2,30.12,NNE,23,0.0,1.1,44,0.00,,,0.00,WUHU216HW,2013-01-03 20:05:00,
2013-01-03 12:10:00,56.0,34.2,30.12,ENE,68,0.4,1.1,44,0.00,,,0.00,WUHU216HW,2013-01-03 20:10:00,
2013-01-03 12:15:00,56.3,34.6,30.13,ENE,68,0.0,0.9,44,0.00,,,0.00,WUHU216HW,2013-01-03 20:15:00,
2013-01-03 12:20:00,56.5,34.7,30.13,NNE,23,0.4,1.6,44,0.00,,,0.00,WUHU216HW,2013-01-03 20:20:00,
2013-01-03 12:25:00,56.9,35.6,30.12,NNE,23,0.4,2.0,45,0.00,,,0.00,WUHU216HW,2013-01-03 20:25:00,
2013-01-03 12:31:00,57.1,34.7,30.11,West,270,1.1,2.0,43,0.00,,,0.00,WUHU216HW,2013-01-03 20:31:00,
2013-01-03 12:36:00,57.2,34.8,30.12,ENE,68,1.1,1.8,43,0.00,,,0.00,WUHU216HW,2013-01-03 20:36:00,
2013-01-03 12:41:00,57.6,33.5,30.11,North,0,3.1,3.1,40,0.00,,,0.00,WUHU216HW,2013-01-03 20:41:00,
2013-01-03 12:46:00,58.0,32.4,30.12,North,0,1.8,3.6,38,0.00,,,0.00,WUHU216HW,2013-01-03 20:46:00,
2013-01-03 12:51:00,58.3,32.0,30.11,North,0,2.5,3.6,37,0.00,,,0.00,WUHU216HW,2013-01-03 20:51:00,
2013-01-03 12:56:00,58.5,33.6,30.12,NNW,338,0.7,4.0,39,0.00,,,0.00,WUHU216HW,2013-01-03 20:56:00,
2013-01-03 13:01:00,58.7,33.8,30.12,North,0,0.7,4.0,39,0.00,,,0.00,WUHU216HW,2013-01-03 21:01:00,
2013-01-03 13:06:00,58.7,34.4,30.12,NE,45,0.4,2.5,40,0.00,,,0.00,WUHU216HW,2013-01-03 21:06:00,
2013-01-03 13:11:00,58.7,36.2,30.11,East,90,0.9,4.0,43,0.00,,,0.00,WUHU216HW,2013-01-03 21:11:00,
2013-01-03 13:16:00,58.7,37.3,30.11,NE,45,2.2,4.0,45,0.00,,,0.00,WUHU216HW,2013-01-03 21:16:00,
2013-01-03 13:21:00,58.3,38.2,30.11,ENE,68,1.1,2.5,47,0.00,,,0.00,WUHU216HW,2013-01-03 21:21:00,
2013-01-03 13:26:00,58.0,38.3,30.11,East,90,1.1,2.0,48,0.00,,,0.00,WUHU216HW,2013-01-03 21:26:00,
2013-01-03 13:31:00,58.0,39.0,30.11,North,0,0.4,2.0,49,0.00,,,0.00,WUHU216HW,2013-01-03 21:31:00,
2013-01-03 13:36:00,57.8,38.8,30.12,NNE,23,1.8,3.1,49,0.00,,,0.00,WUHU216HW,2013-01-03 21:36:00,
2013-01-03 13:41:00,57.6,38.6,30.11,North,0,1.1,3.1,49,0.00,,,0.00,WUHU216HW,2013-01-03 21:41:00,
2013-01-03 13:47:00,57.6,39.3,30.11,NE,45,0.2,1.8,50,0.00,,,0.00,WUHU216HW,2013-01-03 21:47:00,
2013-01-03 13:52:00,57.6,39.3,30.12,ENE,68,0.9,1.8,50,0.00,,,0.00,WUHU216HW,2013-01-03 21:52:00,
2013-01-03 13:57:00,57.6,39.3,30.12,North,0,1.1,1.8,50,0.00,,,0.00,WUHU216HW,2013-01-03 21:57:00,
2013-01-03 14:02:00,57.6,38.6,30.12,North,0,0.9,1.8,49,0.00,,,0.00,WUHU216HW,2013-01-03 22:02:00,
2013-01-03 14:07:00,57.6,37.4,30.12,NE,45,1.6,1.6,47,0.00,,,0.00,WUHU216HW,2013-01-03 22:07:00,
2013-01-03 14:12:00,57.6,36.9,30.12,East,90,1.8,1.8,46,0.00,,,0.00,WUHU216HW,2013-01-03 22:12:00,
2013-01-03 14:17:00,57.8,36.5,30.13,North,0,1.1,1.8,45,0.00,,,0.00,WUHU216HW,2013-01-03 22:17:00,
2013-01-03 14:22:00,57.6,35.7,30.12,East,90,0.0,1.1,44,0.00,,,0.00,WUHU216HW,2013-01-03 22:22:00,
2013-01-03 14:27:00,57.6,36.4,30.12,ESE,113,0.9,2.5,45,0.00,,,0.00,WUHU216HW,2013-01-03 22:27:00,
2013-01-03 14:32:00,57.6,35.7,30.12,NNW,338,0.9,2.5,44,0.00,,,0.00,WUHU216HW,2013-01-03 22:32:00,
2013-01-03 14:37:00,57.4,35.0,30.12,NE,45,1.1,1.8,43,0.00,,,0.00,WUHU216HW,2013-01-03 22:37:00,
2013-01-03 14:42:00,57.2,35.5,30.13,NNE,23,1.8,1.8,44,0.00,,,0.00,WUHU216HW,2013-01-03 22:42:00,
2013-01-03 14:47:00,57.2,34.8,30.12,North,0,2.5,2.5,43,0.00,,,0.00,WUHU216HW,2013-01-03 22:47:00,
2013-01-03 14:52:00,57.2,33.7,30.13,North,0,0.4,2.5,41,0.00,,,0.00,WUHU216HW,2013-01-03 22:52:00,
2013-01-03 14:58:00,57.2,33.1,30.12,North,0,1.1,2.7,40,0.00,,,0.00,WUHU216HW,2013-01-03 22:58:00,
2013-01-03 15:03:00,57.2,33.1,30.13,NNW,338,0.7,2.7,40,0.00,,,0.00,WUHU216HW,2013-01-03 23:03:00,
2013-01-03 15:08:00,57.1,32.9,30.13,NNE,23,2.5,2.5,40,0.00,,,0.00,WUHU216HW,2013-01-03 23:08:00,
2013-01-03 15:13:00,56.9,32.8,30.14,ENE,68,1.1,2.5,40,0.00,,,0.00,WUHU216HW,2013-01-03 23:13:00,
2013-01-03 15:18:00,56.9,33.4,30.13,NE,45,0.4,2.2,41,0.00,,,0.00,WUHU216HW,2013-01-03 23:18:00,
2013-01-03 15:23:00,56.7,33.2,30.14,North,0,0.0,1.8,41,0.00,,,0.00,WUHU216HW,2013-01-03 23:23:00,
2013-01-03 15:28:00,56.5,33.0,30.14,NNE,23,0.0,1.8,41,0.00,,,0.00,WUHU216HW,2013-01-03 23:28:00,
2013-01-03 15:33:00,56.5,33.6,30.14,NW,315,0.0,2.5,42,0.00,,,0.00,WUHU216HW,2013-01-03 23:33:00,
2013-01-03 15:38:00,56.2,33.3,30.14,North,0,0.9,2.5,42,0.00,,,0.00,WUHU216HW,2013-01-03 23:38:00,
2013-01-03 15:43:00,56.0,33.7,30.14,NW,315,0.2,0.9,43,0.00,,,0.00,WUHU216HW,2013-01-03 23:43:00,
2013-01-03 15:48:00,56.0,34.2,30.14,North,0,0.0,0.4,44,0.00,,,0.00,WUHU216HW,2013-01-03 23:48:00,
2013-01-03 15:53:00,55.8,35.2,30.14,West,270,0.2,0.4,46,0.00,,,0.00,WUHU216HW,2013-01-03 23:53:00,
2013-01-03 15:58:00,55.4,35.4,30.13,West,270,0.4,1.1,47,0.00,,,0.00,WUHU216HW,2013-01-03 23:58:00,
2013-01-03 16:03:00,55.1,36.2,30.16,West,270,1.6,1.6,49,0.00,,,0.00,WUHU216HW,2013-01-04 00:03:00,
2013-01-03 16:08:00,54.7,35.9,30.14,WSW,248,1.3,1.6,49,0.00,,,0.00,WUHU216HW,2013-01-04 00:08:00,
2013-01-03 16:13:00,54.5,36.3,30.14,WSW,248,0.7,1.6,50,0.00,,,0.00,WUHU216HW,2013-01-04 00:13:00,
2013-01-03 16:19:00,54.2,36.9,30.13,SW,225,0.4,1.6,52,0.00,,,0.00,WUHU216HW,2013-01-04 00:19:00,
2013-01-03 16:24:00,53.6,36.9,30.15,SW,225,0.0,0.7,53,0.00,,,0.00,WUHU216HW,2013-01-04 00:24:00,
2013-01-03 16:29:00,53.3,36.6,30.14,SW,225,0.0,0.7,53,0.00,,,0.00,WUHU216HW,2013-01-04 00:29:00,
2013-01-03 16:34:00,52.9,36.6,30.14,SW,225,0.0,0.4,54,0.00,,,0.00,WUHU216HW,2013-01-04 00:34:00,
2013-01-03 16:39:00,52.7,36.5,30.13,SSW,203,0.4,0.4,54,0.00,,,0.00,WUHU216HW,2013-01-04 00:39:00,
2013-01-03 16:44:00,52.4,36.6,30.14,SW,225,0.4,0.7,55,0.00,,,0.00,WUHU216HW,2013-01-04 00:44:00,
2013-01-03 16:49:00,52.2,36.9,30.13,SW,225,0.4,0.7,56,0.00,,,0.00,WUHU216HW,2013-01-04 00:49:00,
2013-01-03 16:54:00,52.0,36.3,30.13,SW,225,0.4,0.4,55,0.00,,,0.00,WUHU216HW,2013-01-04 00:54:00,
2013-01-03 16:59:00,52.0,36.7,30.15,WSW,248,1.1,1.1,56,0.00,,,0.00,WUHU216HW,2013-01-04 00:59:00,
2013-01-03 17:04:00,51.7,35.9,30.14,WSW,248,0.9,1.1,55,0.00,,,0.00,WUHU216HW,2013-01-04 01:04:00,
2013-01-03 17:09:00,51.5,35.7,30.15,WSW,248,1.6,1.6,55,0.00,,,0.00,WUHU216HW,2013-01-04 01:09:00,
2013-01-03 17:14:00,51.7,35.9,30.14,WSW,248,1.3,1.8,55,0.00,,,0.00,WUHU216HW,2013-01-04 01:14:00,
2013-01-03 17:19:00,51.7,35.9,30.14,West,270,1.6,1.8,55,0.00,,,0.00,WUHU216HW,2013-01-04 01:19:00,
2013-01-03 17:24:00,51.7,36.4,30.15,West,270,2.0,2.0,56,0.00,,,0.00,WUHU216HW,2013-01-04 01:24:00,
2013-01-03 17:29:00,51.7,36.8,30.15,West,270,1.1,2.0,57,0.00,,,0.00,WUHU216HW,2013-01-04 01:29:00,
2013-01-03 17:34:00,51.5,37.1,30.15,WSW,248,1.8,1.8,58,0.00,,,0.00,WUHU216HW,2013-01-04 01:34:00,
2013-01-03 17:39:00,51.5,37.1,30.16,WSW,248,2.0,2.0,58,0.00,,,0.00,WUHU216HW,2013-01-04 01:39:00,
2013-01-03 17:45:00,51.3,37.0,30.15,West,270,1.1,2.2,58,0.00,,,0.00,WUHU216HW,2013-01-04 01:45:00,
2013-01-03 17:50:00,51.1,37.3,30.15,WSW,248,2.2,2.5,59,0.00,,,0.00,WUHU216HW,2013-01-04 01:50:00,
2013-01-03 17:55:00,50.9,37.1,30.16,West,270,1.3,2.5,59,0.00,,,0.00,WUHU216HW,2013-01-04 01:55:00,
2013-01-03 18:00:00,50.8,36.9,30.16,WSW,248,0.2,1.8,59,0.00,,,0.00,WUHU216HW,2013-01-04 02:00:00,
2013-01-03 18:05:00,50.6,36.7,30.16,SSE,158,0.4,1.1,59,0.00,,,0.00,WUHU216HW,2013-01-04 02:05:00,
2013-01-03 18:10:00,50.4,36.6,30.16,SSW,203,0.0,1.1,59,0.00,,,0.00,WUHU216HW,2013-01-04 02:10:00,
2013-01-03 18:15:00,50.0,36.7,30.17,SW,225,0.0,0.7,60,0.00,,,0.00,WUHU216HW,2013-01-04 02:15:00,
2013-01-03 18:20:00,49.7,36.4,30.17,SW,225,0.0,0.7,60,0.00,,,0.00,WUHU216HW,2013-01-04 02:20:00,
2013-01-03 18:25:00,49.3,36.1,30.16,SW,225,0.0,0.4,60,0.00,,,0.00,WUHU216HW,2013-01-04 02:25:00,
2013-01-03 18:30:00,49.1,36.3,30.17,SW,225,0.7,0.7,61,0.00,,,0.00,WUHU216HW,2013-01-04 02:30:00,
2013-01-03 18:35:00,48.8,36.0,30.17,SW,225,0.4,0.7,61,0.00,,,0.00,WUHU216HW,2013-01-04 02:35:00,
2013-01-03 18:41:00,48.6,35.8,30.17,WSW,248,1.3,1.3,61,0.00,,,0.00,WUHU216HW,2013-01-04 02:41:00,
2013-01-03 18:46:00,48.2,35.5,30.17,WSW,248,0.7,1.3,61,0.00,,,0.00,WUHU216HW,2013-01-04 02:46:00,
2013-01-03 18:51:00,48.1,35.3,30.18,WSW,248,1.1,1.3,61,0.00,,,0.00,WUHU216HW,2013-01-04 02:51:00,
2013-01-03 18:56:00,48.1,35.6,30.19,WSW,248,0.9,1.3,62,0.00,,,0.00,WUHU216HW,2013-01-04 02:56:00,
2013-01-03 19:01:00,48.2,36.3,30.17,West,270,1.8,1.8,63,0.00,,,0.00,WUHU216HW,2013-01-04 03:01:00,
2013-01-03 19:06:00,48.2,36.3,30.18,West,270,1.6,1.8,63,0.00,,,0.00,WUHU216HW,2013-01-04 03:06:00,
2013-01-03 19:11:00,48.2,36.3,30.18,WSW,248,1.1,1.6,63,0.00,,,0.00,WUHU216HW,2013-01-04 03:11:00,
2013-01-03 19:16:00,48.1,36.1,30.18,WSW,248,1.1,1.1,63,0.00,,,0.00,WUHU216HW,2013-01-04 03:16:00,
2013-01-03 19:21:00,48.1,36.1,30.19,SW,225,0.2,1.1,63,0.00,,,0.00,WUHU216HW,2013-01-04 03:21:00,
2013-01-03 19:26:00,47.9,36.3,30.18,SSW,203,0.4,0.7,64,0.00,,,0.00,WUHU216HW,2013-01-04 03:26:00,
2013-01-03 19:31:00,47.7,36.1,30.18,WSW,248,0.7,0.9,64,0.00,,,0.00,WUHU216HW,2013-01-04 03:31:00,
2013-01-03 19:36:00,47.5,36.3,30.18,SW,225,0.2,0.9,65,0.00,,,0.00,WUHU216HW,2013-01-04 03:36:00,
2013-01-03 19:41:00,47.3,36.2,30.19,SW,225,0.4,0.7,65,0.00,,,0.00,WUHU216HW,2013-01-04 03:41:00,
2013-01-03 19:47:00,47.2,36.4,30.18,SW,225,0.9,0.9,66,0.00,,,0.00,WUHU216HW,2013-01-04 03:47:00,
2013-01-03 19:52:00,47.2,36.4,30.18,SW,225,0.7,0.9,66,0.00,,,0.00,WUHU216HW,2013-01-04 03:52:00,
2013-01-03 19:57:00,47.0,37.0,30.19,SW,225,0.7,0.9,68,0.00,,,0.00,WUHU216HW,2013-01-04 03:57:00,
2013-01-03 20:02:00,46.8,37.6,30.19,SW,225,0.7,0.9,70,0.00,,,0.00,WUHU216HW,2013-01-04 04:02:00,
2013-01-03 20:07:00,46.6,38.1,30.19,SW,225,0.7,0.9,72,0.00,,,0.00,WUHU216HW,2013-01-04 04:07:00,
2013-01-03 20:12:00,46.4,37.3,30.18,SW,225,0.7,0.7,70,0.00,,,0.00,WUHU216HW,2013-01-04 04:12:00,
2013-01-03 20:17:00,46.4,37.3,30.18,SW,225,1.1,1.1,70,0.00,,,0.00,WUHU216HW,2013-01-04 04:17:00,
2013-01-03 20:22:00,46.4,37.6,30.20,SSW,203,1.1,1.1,71,0.00,,,0.00,WUHU216HW,2013-01-04 04:22:00,
2013-01-03 20:27:00,46.4,37.6,30.19,SSW,203,1.1,1.3,71,0.00,,,0.00,WUHU216HW,2013-01-04 04:27:00,
2013-01-03 20:32:00,46.4,37.6,30.17,SW,225,1.1,1.3,71,0.00,,,0.00,WUHU216HW,2013-01-04 04:32:00,
2013-01-03 20:37:00,46.4,37.3,30.18,SW,225,1.1,1.1,70,0.00,,,0.00,WUHU216HW,2013-01-04 04:37:00,
2013-01-03 20:42:00,46.4,37.3,30.18,SSW,203,1.1,1.8,70,0.00,,,0.00,WUHU216HW,2013-01-04 04:42:00,
2013-01-03 20:48:00,46.6,37.5,30.18,SW,225,1.1,1.8,70,0.00,,,0.00,WUHU216HW,2013-01-04 04:48:00,
2013-01-03 20:53:00,46.8,37.2,30.19,SSW,203,1.1,1.6,69,0.00,,,0.00,WUHU216HW,2013-01-04 04:53:00,
2013-01-03 20:58:00,46.8,37.2,30.18,SSW,203,1.1,1.6,69,0.00,,,0.00,WUHU216HW,2013-01-04 04:58:00,
2013-01-03 21:00:00,46.8,37.2,30.18,SSW,203,1.6,1.6,69,0.00,,,0.00,WUHU216HW,2013-01-04 05:00:00,
2013-01-03 21:02:00,46.8,37.2,30.17,SSW,203,0.4,1.6,69,0.00,,,0.00,WUHU216HW,2013-01-04 05:02:00,
2013-01-03 21:04:00,46.8,36.8,30.18,SW,225,1.1,1.6,68,0.00,,,0.00,WUHU216HW,2013-01-04 05:04:00,
2013-01-03 21:09:00,47.0,37.0,30.17,SW,225,0.7,1.6,68,0.00,,,0.00,WUHU216HW,2013-01-04 05:09:00,
2013-01-03 21:14:00,47.0,37.0,30.18,SW,225,1.1,1.3,68,0.00,,,0.00,WUHU216HW,2013-01-04 05:14:00,
2013-01-03 21:19:00,47.0,37.0,30.18,SW,225,1.8,2.0,68,0.00,,,0.00,WUHU216HW,2013-01-04 05:19:00,
2013-01-03 21:24:00,47.0,36.5,30.18,WSW,248,1.1,2.5,67,0.00,,,0.00,WUHU216HW,2013-01-04 05:24:00,
2013-01-03 21:29:00,47.2,36.4,30.18,SW,225,0.9,2.5,66,0.00,,,0.00,WUHU216HW,2013-01-04 05:29:00,
2013-01-03 21:34:00,47.2,36.0,30.18,SW,225,1.1,1.1,65,0.00,,,0.00,WUHU216HW,2013-01-04 05:34:00,
2013-01-03 21:39:00,47.3,36.2,30.17,SW,225,1.3,1.3,65,0.00,,,0.00,WUHU216HW,2013-01-04 05:39:00,
2013-01-03 21:44:00,47.3,35.7,30.19,SW,225,0.9,1.3,64,0.00,,,0.00,WUHU216HW,2013-01-04 05:44:00,
2013-01-03 21:49:00,47.3,35.4,30.18,SW,225,0.7,1.1,63,0.00,,,0.00,WUHU216HW,2013-01-04 05:49:00,
2013-01-03 21:54:00,47.3,35.4,30.17,SW,225,0.4,1.1,63,0.00,,,0.00,WUHU216HW,2013-01-04 05:54:00,
2013-01-03 21:59:00,47.5,35.6,30.18,SW,225,0.4,0.7,63,0.00,,,0.00,WUHU216HW,2013-01-04 05:59:00,
2013-01-03 22:05:00,47.5,35.2,30.18,SW,225,0.7,1.1,62,0.00,,,0.00,WUHU216HW,2013-01-04 06:05:00,
2013-01-03 22:10:00,47.5,35.2,30.17,SW,225,0.4,1.1,62,0.00,,,0.00,WUHU216HW,2013-01-04 06:10:00,
2013-01-03 22:15:00,47.5,34.7,30.18,SW,225,0.2,0.7,61,0.00,,,0.00,WUHU216HW,2013-01-04 06:15:00,
2013-01-03 22:20:00,47.5,34.7,30.18,SW,225,0.9,0.9,61,0.00,,,0.00,WUHU216HW,2013-01-04 06:20:00,
2013-01-03 22:25:00,47.5,34.7,30.18,SW,225,0.9,0.9,61,0.00,,,0.00,WUHU216HW,2013-01-04 06:25:00,
2013-01-03 22:30:00,47.3,34.6,30.19,SW,225,0.9,1.1,61,0.00,,,0.00,WUHU216HW,2013-01-04 06:30:00,
2013-01-03 22:35:00,47.2,34.4,30.19,SW,225,0.9,1.1,61,0.00,,,0.00,WUHU216HW,2013-01-04 06:35:00,
2013-01-03 22:40:00,47.2,34.4,30.17,SW,225,0.9,0.9,61,0.00,,,0.00,WUHU216HW,2013-01-04 06:40:00,
2013-01-03 22:45:00,47.2,34.4,30.18,SW,225,1.1,1.1,61,0.00,,,0.00,WUHU216HW,2013-01-04 06:45:00,
2013-01-03 22:50:00,47.2,34.4,30.18,SW,225,0.9,1.3,61,0.00,,,0.00,WUHU216HW,2013-01-04 06:50:00,
2013-01-03 22:55:00,47.2,34.4,30.18,SW,225,1.1,1.3,61,0.00,,,0.00,WUHU216HW,2013-01-04 06:55:00,
2013-01-03 23:00:00,47.0,33.8,30.17,WSW,248,1.8,1.8,60,0.00,,,0.00,WUHU216HW,2013-01-04 07:00:00,
2013-01-03 23:06:00,47.0,33.8,30.17,WSW,248,1.1,1.8,60,0.00,,,0.00,WUHU216HW,2013-01-04 07:06:00,
2013-01-03 23:11:00,47.0,33.8,30.17,SW,225,1.8,1.8,60,0.00,,,0.00,WUHU216HW,2013-01-04 07:11:00,
2013-01-03 23:16:00,47.0,33.8,30.16,SW,225,1.8,2.0,60,0.00,,,0.00,WUHU216HW,2013-01-04 07:16:00,
2013-01-03 23:21:00,47.0,33.4,30.16,WSW,248,1.8,2.0,59,0.00,,,0.00,WUHU216HW,2013-01-04 07:21:00,
2013-01-03 23:26:00,47.0,33.8,30.17,WSW,248,1.6,1.8,60,0.00,,,0.00,WUHU216HW,2013-01-04 07:26:00,
2013-01-03 23:31:00,47.2,34.0,30.16,WSW,248,0.0,2.5,60,0.00,,,0.00,WUHU216HW,2013-01-04 07:31:00,
2013-01-03 23:36:00,47.2,33.6,30.17,WSW,248,0.7,2.5,59,0.00,,,0.00,WUHU216HW,2013-01-04 07:36:00,
2013-01-03 23:41:00,47.2,33.6,30.16,SW,225,0.7,0.7,59,0.00,,,0.00,WUHU216HW,2013-01-04 07:41:00,
2013-01-03 23:46:00,47.0,33.0,30.16,SW,225,0.4,0.7,58,0.00,,,0.00,WUHU216HW,2013-01-04 07:46:00,
2013-01-03 23:51:00,46.8,32.8,30.15,SW,225,0.4,0.9,58,0.00,,,0.00,WUHU216HW,2013-01-04 07:51:00,
2013-01-03 23:56:00,46.4,32.4,30.17,NNW,338,0.4,0.9,58,0.00,,,0.00,WUHU216HW,2013-01-04 07:56:00,